Location: Spring Mountain Observatory
(40.2501°N, 75.4333°W)
Time: 23:31:59
(UTC-05:00)

Hubble Space Telescope - Visible Passes

Search period start: 21 January 2018 00:00
Search period end: 31 January 2018 00:00
Orbit: 537 x 541 km, 28.5° (Epoch: 21 January)

Date Brightness Start Highest point End Pass type
(mag) Time Alt. Az. Time Alt. Az. Time Alt. Az.
23 Jan 3.3 18:58:19 10° S 18:58:45 10° SSE 18:58:58 10° SSE visible
24 Jan 3.2 18:46:54 10° S 18:48:22 12° SSE 18:49:23 11° SSE visible
25 Jan 3.1 18:36:02 10° SSW 18:37:58 13° S 18:39:46 10° SE visible
26 Jan 3.1 18:25:23 10° SSW 18:27:36 14° S 18:29:48 10° SE visible
27 Jan 3.1 18:14:49 10° SSW 18:17:12 15° S 18:19:36 10° SE visible
27 Jan 3.6 19:55:26 10° SW 19:55:55 11° SW 19:55:55 11° SW visible
28 Jan 3.1 18:04:20 10° SW 18:06:50 16° S 18:09:20 10° SE visible
28 Jan 3.5 19:45:18 10° SW 19:46:21 12° SSW 19:46:21 12° SSW visible
29 Jan 3.2 17:53:55 10° SW 17:56:27 16° S 17:58:59 10° SE visible
29 Jan 3.4 19:35:19 10° SW 19:36:50 12° SSW 19:36:50 12° SSW visible
30 Jan 3.2 17:43:33 10° SW 17:46:04 16° S 17:48:35 10° SE visible
30 Jan 3.5 19:25:41 10° SSW 19:26:31 10° SSW 19:27:21 10° S visible
